,,Stat1,,Stat2,,Stat3,,Stat4,,Wind1,,Wind1,
time,status,PR1M_SUM,status,RH1M_AVG,status,SR1M_AVG,status,TA1M_AVG,status,W1dAve1m,status,W1sAve1m,
1999-10-22, 00:01:00,VALID,0,VALID,97.0997,VALID,-0.0169808,VALID,19.7134,VALID,321,VALID,0,
1999-10-22, 00:02:00,VALID,0,VALID,97.1252,VALID,0,VALID,19.7432,VALID,321,VALID,0,
1999-10-22, 00:03:00,VALID,0,VALID,97.5651,VALID,-0.0339617,VALID,19.7688,VALID,321,VALID,0,
1999-10-22, 00:04:00,VALID,0,VALID,97.4316,VALID,-0.0169808,VALID,19.7395,VALID,322,VALID,0,
1999-10-22, 00:05:00,VALID,0,VALID,96.6025,VALID,-0.0169808,VALID,19.675,VALID,321,VALID,0,
1999-10-22, 00:06:00,VALID,0,VALID,96.5211,VALID,0,VALID,19.6653,VALID,321,VALID,0,
1999-10-22, 00:07:00,VALID,0,VALID,97.1328,VALID,-0.0169808,VALID,19.688,VALID,321,VALID,0,
1999-10-22, 00:08:00,VALID,0,VALID,97.0387,VALID,0,VALID,19.6783,VALID,321,VALID,0,
1999-10-22, 00:09:00,VALID,0,VALID,96.7055,VALID,0,VALID,19.6392,VALID,321,VALID,0,
1999-10-22, 00:10:00,VALID,0,VALID,96.8467,VALID,-0.0169808,VALID,19.6524,VALID,321,VALID,0,
1999-10-22, 00:11:00,VALID,0,VALID,96.5199,VALID,-0.0169808,VALID,19.6201,VALID,321,VALID,0,
1999-10-22, 00:12:00,VALID,0,VALID,96.6852,VALID,-0.0169808,VALID,19.6163,VALID,321,VALID,0,
1999-10-22, 00:13:00,VALID,0,VALID,96.8212,VALID,0,VALID,19.6203,VALID,307,VALID,0,
1999-10-22, 00:14:00,VALID,0,VALID,97.4125,VALID,-0.0339617,VALID,19.6559,VALID,303,VALID,0,
1999-10-22, 00:15:01,VALID,0,VALID,97.7978,VALID,-0.0169808,VALID,19.6785,VALID,303,VALID,0,
1999-10-22, 00:16:00,VALID,0,VALID,97.8907,VALID,0.0169808,VALID,19.6847,VALID,303,VALID,0,
1999-10-22, 00:17:00,VALID,0,VALID,97.9708,VALID,-0.0169808,VALID,19.688,VALID,303,VALID,0,
1999-10-22, 00:18:00,VALID,0,VALID,98.042,VALID,0,VALID,19.6882,VALID,303,VALID,0,
1999-10-22, 00:19:00,VALID,0,VALID,98.0916,VALID,0,VALID,19.6915,VALID,303,VALID,0,
1999-10-22, 00:20:00,VALID,0,VALID,98.1081,VALID,-0.0169808,VALID,19.6783,VALID,303,VALID,0,
1999-10-22, 00:21:00,VALID,0,VALID,98.1424,VALID,-0.0169808,VALID,19.6686,VALID,302,VALID,0,
1999-10-22, 00:22:00,VALID,0,VALID,98.159,VALID,0,VALID,19.6586,VALID,302,VALID,0,
1999-10-22, 00:23:00,VALID,0,VALID,98.1361,VALID,0.0169808,VALID,19.6519,VALID,295,VALID,0,
1999-10-22, 00:24:00,VALID,0,VALID,98.1386,VALID,-0.0169808,VALID,19.639,VALID,291,VALID,0,
1999-10-22, 00:25:00,VALID,0,VALID,98.1437,VALID,0,VALID,19.6325,VALID,291,VALID,0,
1999-10-22, 00:26:00,VALID,0,VALID,98.1539,VALID,0,VALID,19.6462,VALID,291,VALID,0,
1999-10-22, 00:27:00,VALID,0,VALID,98.1424,VALID,-0.0339617,VALID,19.6494,VALID,291,VALID,0,
1999-10-22, 00:28:00,VALID,0,VALID,98.1475,VALID,-0.0339617,VALID,19.6357,VALID,291,VALID,0,
1999-10-22, 00:29:00,VALID,0,VALID,98.2823,VALID,0,VALID,19.6619,VALID,291,VALID,0,
1999-10-22, 00:30:00,VALID,0,VALID,98.3128,VALID,-0.0169808,VALID,19.6721,VALID,291,VALID,0,
1999-10-22, 00:31:00,VALID,0,VALID,97.9212,VALID,0.0169808,VALID,19.6004,VALID,291,VALID,0,
1999-10-22, 00:32:00,VALID,0,VALID,97.6516,VALID,0,VALID,19.5748,VALID,291,VALID,0,
1999-10-22, 00:33:00,VALID,0,VALID,97.7915,VALID,-0.0169808,VALID,19.5815,VALID,280,VALID,0,
1999-10-22, 00:34:00,VALID,0,VALID,97.808,VALID,0,VALID,19.5847,VALID,273,VALID,0,
1999-10-22, 00:35:00,VALID,0,VALID,97.9212,VALID,0,VALID,19.5813,VALID,273,VALID,0,
1999-10-22, 00:36:00,VALID,0,VALID,97.8919,VALID,-0.0509425,VALID,19.5785,VALID,273,VALID,0,
1999-10-22, 00:37:01,VALID,0,VALID,97.9403,VALID,-0.0679233,VALID,19.5623,VALID,273,VALID,0,
1999-10-22, 00:38:00,VALID,0,VALID,97.9555,VALID,-0.0509425,VALID,19.5626,VALID,273,VALID,0,
1999-10-22, 00:39:00,VALID,0,VALID,97.9975,VALID,-0.0339617,VALID,19.5526,VALID,272,VALID,0,
1999-10-22, 00:40:00,VALID,0,VALID,98.0674,VALID,-0.0339617,VALID,19.5494,VALID,272,VALID,0,
1999-10-22, 00:41:00,VALID,0,VALID,98.1017,VALID,-0.0169808,VALID,19.54,VALID,272,VALID,0,
1999-10-22, 00:42:00,VALID,0,VALID,98.1132,VALID,0,VALID,19.5268,VALID,272,VALID,0,
1999-10-22, 00:43:00,VALID,0,VALID,98.0547,VALID,-0.0169808,VALID,19.5166,VALID,272,VALID,0,
1999-10-22, 00:44:00,VALID,0,VALID,98.0547,VALID,-0.0169808,VALID,19.5041,VALID,272,VALID,0,
1999-10-22, 00:45:00,VALID,0,VALID,98.1043,VALID,-0.0339617,VALID,19.5011,VALID,272,VALID,0,
1999-10-22, 00:46:00,VALID,0,VALID,98.0916,VALID,-0.0509425,VALID,19.4845,VALID,272,VALID,0,
1999-10-22, 00:47:00,VALID,0,VALID,98.0013,VALID,-0.0339617,VALID,19.4755,VALID,268,VALID,0,
1999-10-22, 00:48:01,VALID,0,VALID,97.8678,VALID,-0.0169808,VALID,19.4586,VALID,268,VALID,0,
1999-10-22, 00:49:00,VALID,0,VALID,97.8729,VALID,-0.0339617,VALID,19.4589,VALID,268,VALID,0,
1999-10-22, 00:50:00,VALID,0,VALID,97.9886,VALID,0,VALID,19.4683,VALID,268,VALID,0,
1999-10-22, 00:51:00,VALID,0,VALID,98.1208,VALID,0,VALID,19.4783,VALID,268,VALID,0,
1999-10-22, 00:52:00,VALID,0,VALID,98.1539,VALID,-0.0169808,VALID,19.478,VALID,268,VALID,0,
1999-10-22, 00:53:00,VALID,0,VALID,98.2582,VALID,-0.0169808,VALID,19.5039,VALID,268,VALID,0,
1999-10-22, 00:54:00,VALID,0,VALID,98.3637,VALID,-0.0169808,VALID,19.5402,VALID,268,VALID,0,
1999-10-22, 00:55:00,VALID,0,VALID,98.5315,VALID,-0.0169808,VALID,19.5656,VALID,268,VALID,0,
1999-10-22, 00:56:00,VALID,0,VALID,98.6854,VALID,-0.0509425,VALID,19.6012,VALID,268,VALID,0,
1999-10-22, 00:57:00,VALID,0,VALID,98.7693,VALID,-0.0339617,VALID,19.6171,VALID,268,VALID,0,
1999-10-22, 00:58:01,VALID,0,VALID,98.7566,VALID,-0.0169808,VALID,19.627,VALID,268,VALID,0,
1999-10-22, 00:59:00,VALID,0,VALID,98.749,VALID,-0.0169808,VALID,19.6308,VALID,268,VALID,0,
1999-10-22, 01:00:00,VALID,0,VALID,98.7732,VALID,-0.0339617,VALID,19.6405,VALID,268,VALID,0,
1999-10-22, 01:01:00,VALID,0,VALID,98.7007,VALID,-0.0339617,VALID,19.634,VALID,268,VALID,0,
1999-10-22, 01:02:00,VALID,0,VALID,98.5913,VALID,-0.0339617,VALID,19.6017,VALID,268,VALID,0,
1999-10-22, 01:03:00,VALID,0,VALID,98.6244,VALID,-0.0339617,VALID,19.6109,VALID,268,VALID,0,
1999-10-22, 01:04:00,VALID,0,VALID,98.5494,VALID,-0.0509425,VALID,19.6178,VALID,268,VALID,0,
1999-10-22, 01:05:00,VALID,0,VALID,98.2734,VALID,-0.0509425,VALID,19.5661,VALID,268,VALID,0,
1999-10-22, 01:06:00,VALID,0,VALID,98.1106,VALID,-0.0679233,VALID,19.5529,VALID,268,VALID,0,
1999-10-22, 01:07:00,VALID,0,VALID,98.3612,VALID,-0.0339617,VALID,19.6014,VALID,268,VALID,0,
1999-10-22, 01:08:00,VALID,0,VALID,98.6078,VALID,-0.0849042,VALID,19.6599,VALID,269,VALID,0,
1999-10-22, 01:09:00,VALID,0,VALID,98.749,VALID,-0.0169808,VALID,19.6885,VALID,273,VALID,0,
1999-10-22, 01:10:01,VALID,0,VALID,98.749,VALID,-0.0679233,VALID,19.6857,VALID,273,VALID,0,
1999-10-22, 01:11:00,VALID,0,VALID,98.7566,VALID,-0.0339617,VALID,19.679,VALID,273,VALID,0,
1999-10-22, 01:12:00,VALID,0,VALID,98.8049,VALID,-0.0339617,VALID,19.6984,VALID,273,VALID,0,
1999-10-22, 01:13:00,VALID,0,VALID,98.8304,VALID,-0.0509425,VALID,19.7144,VALID,273,VALID,0,
1999-10-22, 01:14:00,VALID,0,VALID,98.9207,VALID,-0.0339617,VALID,19.7502,VALID,273,VALID,0,
1999-10-22, 01:15:00,VALID,0,VALID,98.8927,VALID,0,VALID,19.7467,VALID,273,VALID,0,
1999-10-22, 01:16:00,VALID,0,VALID,98.5557,VALID,-0.0509425,VALID,19.6634,VALID,273,VALID,0,
1999-10-22, 01:17:00,VALID,0,VALID,98.6053,VALID,-0.0679233,VALID,19.6631,VALID,273,VALID,0,
1999-10-22, 01:18:00,VALID,0,VALID,98.7668,VALID,-0.0679233,VALID,19.7051,VALID,273,VALID,0,
1999-10-22, 01:19:00,VALID,0,VALID,98.6524,VALID,-0.0849042,VALID,19.6758,VALID,273,VALID,0,
1999-10-22, 01:20:01,VALID,0,VALID,98.2378,VALID,-0.0679233,VALID,19.5822,VALID,273,VALID,0,
1999-10-22, 01:21:01,VALID,0,VALID,98.3332,VALID,-0.0509425,VALID,19.6019,VALID,273,VALID,0,
1999-10-22, 01:22:00,VALID,0,VALID,98.3929,VALID,-0.0509425,VALID,19.6044,VALID,274,VALID,0,
1999-10-22, 01:23:00,VALID,0,VALID,98.2505,VALID,-0.0169808,VALID,19.5656,VALID,316,VALID,0,
1999-10-22, 01:24:00,VALID,0,VALID,98.1908,VALID,-0.0509425,VALID,19.5788,VALID,324,VALID,0,
1999-10-22, 01:25:00,VALID,0,VALID,98.1323,VALID,-0.0679233,VALID,19.5755,VALID,325,VALID,0,
1999-10-22, 01:26:00,VALID,0,VALID,98.0878,VALID,-0.0339617,VALID,19.5915,VALID,326,VALID,0,
1999-10-22, 01:27:00,VALID,0,VALID,98.1577,VALID,-0.0509425,VALID,19.6111,VALID,325,VALID,0,
1999-10-22, 01:28:00,VALID,0,VALID,98.0433,VALID,-0.0849042,VALID,19.5987,VALID,325,VALID,0,
1999-10-22, 01:29:00,VALID,0,VALID,98.234,VALID,-0.0679233,VALID,19.6146,VALID,325,VALID,0,
1999-10-22, 01:30:00,VALID,0,VALID,98.3039,VALID,-0.0849042,VALID,19.6181,VALID,325,VALID,0,
1999-10-22, 01:31:00,VALID,0,VALID,98.3052,VALID,-0.0849042,VALID,19.6111,VALID,325,VALID,0,
1999-10-22, 01:32:01,VALID,0,VALID,98.44,VALID,-0.0849042,VALID,19.6178,VALID,325,VALID,0,
1999-10-22, 01:33:00,VALID,0,VALID,98.4972,VALID,-0.0679233,VALID,19.6114,VALID,325,VALID,0,
1999-10-22, 01:34:00,VALID,0,VALID,98.5137,VALID,-0.0679233,VALID,19.5887,VALID,325,VALID,0,
1999-10-22, 01:35:00,VALID,0,VALID,98.571,VALID,-0.0849042,VALID,19.5855,VALID,325,VALID,0,
1999-10-22, 01:36:00,VALID,0,VALID,98.5913,VALID,-0.0679233,VALID,19.5696,VALID,314,VALID,0,
1999-10-22, 01:37:00,VALID,0,VALID,98.5989,VALID,-0.0509425,VALID,19.5619,VALID,303,VALID,0,
1999-10-22, 01:38:00,VALID,0,VALID,98.5989,VALID,-0.0509425,VALID,19.5529,VALID,303,VALID,0,
1999-10-22, 01:39:00,VALID,0,VALID,98.5824,VALID,-0.0509425,VALID,19.5268,VALID,303,VALID,0,
1999-10-22, 01:40:00,VALID,0,VALID,98.5888,VALID,-0.0679233,VALID,19.5002,VALID,291,VALID,0,
1999-10-22, 01:41:00,VALID,0,VALID,98.6396,VALID,-0.0509425,VALID,19.4944,VALID,277,VALID,0,
1999-10-22, 01:42:01,VALID,0,VALID,98.6791,VALID,-0.0169808,VALID,19.4812,VALID,277,VALID,0,
1999-10-22, 01:43:01,VALID,0,VALID,98.6943,VALID,-0.0339617,VALID,19.4715,VALID,277,VALID,0,
1999-10-22, 01:44:00,VALID,0,VALID,98.7147,VALID,-0.0509425,VALID,19.4524,VALID,277,VALID,0,
1999-10-22, 01:45:00,VALID,0,VALID,98.7401,VALID,-0.0509425,VALID,19.4457,VALID,277,VALID,0,
1999-10-22, 01:46:00,VALID,0,VALID,98.7528,VALID,-0.0169808,VALID,19.4362,VALID,277,VALID,0,
1999-10-22, 01:47:00,VALID,0,VALID,98.7846,VALID,-0.0679233,VALID,19.4233,VALID,277,VALID,0,
1999-10-22, 01:48:00,VALID,0,VALID,98.7426,VALID,-0.0339617,VALID,19.4196,VALID,277,VALID,0,
1999-10-22, 01:49:00,VALID,0,VALID,98.5214,VALID,-0.0169808,VALID,19.4004,VALID,277,VALID,0,
1999-10-22, 01:50:00,VALID,0,VALID,98.3586,VALID,-0.0169808,VALID,19.4071,VALID,277,VALID,0,
1999-10-22, 01:51:00,VALID,0,VALID,98.3484,VALID,0,VALID,19.423,VALID,275,VALID,0,
1999-10-22, 01:52:01,VALID,0,VALID,98.3421,VALID,-0.0339617,VALID,19.4233,VALID,275,VALID,0,
1999-10-22, 01:53:00,VALID,0,VALID,98.3739,VALID,-0.0509425,VALID,19.4036,VALID,275,VALID,0,
1999-10-22, 01:54:01,VALID,0,VALID,98.3726,VALID,-0.0509425,VALID,19.4069,VALID,275,VALID,0,
1999-10-22, 01:55:00,VALID,0,VALID,98.3192,VALID,-0.0169808,VALID,19.3972,VALID,275,VALID,0,
1999-10-22, 01:56:00,VALID,0,VALID,98.2836,VALID,-0.0169808,VALID,19.378,VALID,275,VALID,0,
1999-10-22, 01:57:00,VALID,0,VALID,98.2785,VALID,-0.0849042,VALID,19.3554,VALID,275,VALID,0,
1999-10-22, 01:58:00,VALID,0,VALID,98.309,VALID,-0.0509425,VALID,19.3484,VALID,275,VALID,0,
1999-10-22, 01:59:00,VALID,0,VALID,98.2594,VALID,-0.0509425,VALID,19.3322,VALID,275,VALID,0,
1999-10-22, 02:00:00,VALID,0,VALID,98.2238,VALID,-0.0509425,VALID,19.3293,VALID,275,VALID,0,
1999-10-22, 02:01:00,VALID,0,VALID,98.1552,VALID,-0.0339617,VALID,19.326,VALID,275,VALID,0,
1999-10-22, 02:02:00,VALID,0,VALID,98.0598,VALID,-0.0169808,VALID,19.2962,VALID,275,VALID,0,
1999-10-22, 02:03:00,VALID,0,VALID,98.0547,VALID,-0.0509425,VALID,19.3133,VALID,275,VALID,0,
1999-10-22, 02:04:00,VALID,0,VALID,97.9987,VALID,-0.0509425,VALID,19.33,VALID,275,VALID,0,
1999-10-22, 02:05:00,VALID,0,VALID,97.8118,VALID,-0.0509425,VALID,19.3069,VALID,275,VALID,0,
1999-10-22, 02:06:00,VALID,0,VALID,97.5359,VALID,-0.0339617,VALID,19.3036,VALID,275,VALID,0,
1999-10-22, 02:07:00,VALID,0,VALID,97.2383,VALID,-0.0679233,VALID,19.3034,VALID,275,VALID,0,
1999-10-22, 02:08:00,VALID,0,VALID,96.9344,VALID,-0.0169808,VALID,19.3263,VALID,275,VALID,0,
1999-10-22, 02:09:00,VALID,0,VALID,96.7627,VALID,-0.0339617,VALID,19.3263,VALID,275,VALID,0,
1999-10-22, 02:10:00,VALID,0,VALID,96.8619,VALID,-0.0339617,VALID,19.32,VALID,275,VALID,0,
1999-10-22, 02:11:00,VALID,0,VALID,96.9331,VALID,-0.0849042,VALID,19.2939,VALID,275,VALID,0,
1999-10-22, 02:12:00,VALID,0,VALID,96.9293,VALID,-0.0169808,VALID,19.2969,VALID,275,VALID,0,
1999-10-22, 02:13:00,VALID,0,VALID,96.9204,VALID,-0.0169808,VALID,19.287,VALID,275,VALID,0,
1999-10-22, 02:14:00,VALID,0,VALID,96.8937,VALID,-0.0339617,VALID,19.2872,VALID,275,VALID,0,
1999-10-22, 02:15:00,VALID,0,VALID,96.75,VALID,-0.0679233,VALID,19.2775,VALID,275,VALID,0,
1999-10-22, 02:16:00,VALID,0,VALID,96.5186,VALID,-0.0169808,VALID,19.281,VALID,266,VALID,0,
1999-10-22, 02:17:00,VALID,0,VALID,96.4703,VALID,-0.0339617,VALID,19.2778,VALID,262,VALID,0,
1999-10-22, 02:18:00,VALID,0,VALID,96.3775,VALID,-0.0509425,VALID,19.2845,VALID,262,VALID,0,
1999-10-22, 02:19:00,VALID,0,VALID,96.3749,VALID,-0.0849042,VALID,19.2812,VALID,262,VALID,0,
1999-10-22, 02:20:00,VALID,0,VALID,96.249,VALID,-0.0339617,VALID,19.2778,VALID,262,VALID,0,
1999-10-22, 02:21:00,VALID,0,VALID,96.3266,VALID,-0.0169808,VALID,19.2907,VALID,262,VALID,0,
1999-10-22, 02:22:00,VALID,0,VALID,96.3635,VALID,-0.0849042,VALID,19.2778,VALID,262,VALID,0,
1999-10-22, 02:23:00,VALID,0,VALID,96.3902,VALID,-0.0849042,VALID,19.2748,VALID,262,VALID,0,
1999-10-22, 02:24:00,VALID,0,VALID,96.5161,VALID,0,VALID,19.2748,VALID,262,VALID,0,
1999-10-22, 02:25:01,VALID,0,VALID,96.6839,VALID,-0.0169808,VALID,19.2516,VALID,262,VALID,0,
1999-10-22, 02:26:00,VALID,0,VALID,96.7526,VALID,-0.0679233,VALID,19.2355,VALID,262,VALID,0,
1999-10-22, 02:27:00,VALID,0,VALID,96.8111,VALID,-0.0339617,VALID,19.2392,VALID,262,VALID,0,
1999-10-22, 02:28:00,VALID,0,VALID,96.8518,VALID,-0.0509425,VALID,19.2427,VALID,262,VALID,0,
1999-10-22, 02:29:00,VALID,0,VALID,96.8518,VALID,-0.0509425,VALID,19.2161,VALID,246,VALID,0,
1999-10-22, 02:30:00,VALID,0,VALID,96.7399,VALID,-0.0169808,VALID,19.2096,VALID,242,VALID,0,
1999-10-22, 02:31:00,VALID,0,VALID,96.7615,VALID,-0.0679233,VALID,19.2066,VALID,242,VALID,0,
1999-10-22, 02:32:00,VALID,0,VALID,96.7424,VALID,-0.0339617,VALID,19.2006,VALID,242,VALID,0,
1999-10-22, 02:33:00,VALID,0,VALID,96.6852,VALID,-0.0169808,VALID,19.1872,VALID,241,VALID,0,
1999-10-22, 02:34:00,VALID,0,VALID,96.6585,VALID,-0.0339617,VALID,19.168,VALID,241,VALID,0,
1999-10-22, 02:35:00,VALID,0,VALID,96.6826,VALID,-0.0679233,VALID,19.1683,VALID,241,VALID,0,
1999-10-22, 02:36:00,VALID,0,VALID,96.6915,VALID,-0.0509425,VALID,19.1648,VALID,241,VALID,0,
1999-10-22, 02:37:00,VALID,0,VALID,96.7869,VALID,-0.0849042,VALID,19.1579,VALID,241,VALID,0,
1999-10-22, 02:38:00,VALID,0,VALID,96.8314,VALID,-0.0339617,VALID,19.1611,VALID,241,VALID,0,
1999-10-22, 02:39:00,VALID,0,VALID,96.7856,VALID,-0.0169808,VALID,19.1715,VALID,241,VALID,0,
1999-10-22, 02:40:00,VALID,0,VALID,96.7805,VALID,-0.0339617,VALID,19.168,VALID,241,VALID,0,
1999-10-22, 02:41:00,VALID,0,VALID,96.8429,VALID,-0.0339617,VALID,19.1447,VALID,241,VALID,0,
1999-10-22, 02:42:00,VALID,0,VALID,96.9395,VALID,-0.0339617,VALID,19.1551,VALID,241,VALID,0,
1999-10-22, 02:43:00,VALID,0,VALID,96.9268,VALID,-0.0169808,VALID,19.1452,VALID,241,VALID,0,
1999-10-22, 02:44:00,VALID,0,VALID,96.881,VALID,-0.0169808,VALID,19.1387,VALID,241,VALID,0,
1999-10-22, 02:45:00,VALID,0,VALID,96.9242,VALID,0,VALID,19.1258,VALID,241,VALID,0,
1999-10-22, 02:46:00,VALID,0,VALID,96.9014,VALID,-0.0169808,VALID,19.1096,VALID,241,VALID,0,
1999-10-22, 02:47:01,VALID,0,VALID,96.9827,VALID,-0.0169808,VALID,19.0967,VALID,241,VALID,0,
1999-10-22, 02:48:00,VALID,0,VALID,97.1697,VALID,-0.0509425,VALID,19.0897,VALID,241,VALID,0,
1999-10-22, 02:49:00,VALID,0,VALID,97.1646,VALID,-0.0169808,VALID,19.0867,VALID,241,VALID,0,
1999-10-22, 02:50:00,VALID,0,VALID,97.148,VALID,-0.0339617,VALID,19.0832,VALID,241,VALID,0,
1999-10-22, 02:51:00,VALID,0,VALID,97.1735,VALID,-0.0169808,VALID,19.0805,VALID,241,VALID,0,
1999-10-22, 02:52:00,VALID,0,VALID,97.2231,VALID,-0.0339617,VALID,19.0641,VALID,241,VALID,0,
1999-10-22, 02:53:00,VALID,0,VALID,97.2396,VALID,-0.0339617,VALID,19.071,VALID,241,VALID,0,
1999-10-22, 02:54:00,VALID,0,VALID,97.2409,VALID,-0.0679233,VALID,19.0643,VALID,243,VALID,0,
1999-10-22, 02:55:00,VALID,0,VALID,97.2968,VALID,-0.0509425,VALID,19.0454,VALID,231,VALID,0,
1999-10-22, 02:56:00,VALID,0,VALID,97.3413,VALID,-0.0679233,VALID,19.029,VALID,230,VALID,0,
1999-10-22, 02:57:00,VALID,0,VALID,97.4113,VALID,-0.101885,VALID,19.0258,VALID,230,VALID,0,
1999-10-22, 02:58:00,VALID,0,VALID,97.4634,VALID,-0.0679233,VALID,19.0195,VALID,230,VALID,0,
1999-10-22, 02:59:00,VALID,0,VALID,97.5372,VALID,-0.0679233,VALID,19.0126,VALID,231,VALID,0,
1999-10-22, 03:00:00,VALID,0,VALID,97.6249,VALID,-0.0169808,VALID,19.0096,VALID,231,VALID,0,
1999-10-22, 03:01:00,VALID,0,VALID,97.7482,VALID,-0.0509425,VALID,19.0128,VALID,231,VALID,0,
1999-10-22, 03:02:00,VALID,0,VALID,97.8932,VALID,-0.0679233,VALID,19.0459,VALID,231,VALID,0,
1999-10-22, 03:03:00,VALID,0,VALID,97.8258,VALID,-0.0509425,VALID,19.0258,VALID,231,VALID,0,
1999-10-22, 03:04:00,VALID,0,VALID,97.6707,VALID,-0.0339617,VALID,19.0103,VALID,231,VALID,0,
1999-10-22, 03:05:00,VALID,0,VALID,97.5995,VALID,-0.0339617,VALID,18.9738,VALID,231,VALID,0,
1999-10-22, 03:06:00,VALID,0,VALID,97.6338,VALID,-0.0509425,VALID,18.9544,VALID,231,VALID,0,
1999-10-22, 03:07:00,VALID,0,VALID,97.6694,VALID,-0.0509425,VALID,18.9419,VALID,231,VALID,0,
1999-10-22, 03:08:00,VALID,0,VALID,97.7521,VALID,-0.0509425,VALID,18.9223,VALID,231,VALID,0,
1999-10-22, 03:09:00,VALID,0,VALID,97.972,VALID,-0.0339617,VALID,18.9352,VALID,231,VALID,0,
1999-10-22, 03:10:01,VALID,0,VALID,98.1323,VALID,-0.0339617,VALID,18.9479,VALID,231,VALID,0,
1999-10-22, 03:11:00,VALID,0,VALID,98.1933,VALID,-0.0339617,VALID,18.9673,VALID,231,VALID,0,
1999-10-22, 03:12:00,VALID,0,VALID,98.1081,VALID,0,VALID,18.9738,VALID,231,VALID,0,
1999-10-22, 03:13:00,VALID,0,VALID,98.0077,VALID,-0.0169808,VALID,18.987,VALID,231,VALID,0,
1999-10-22, 03:14:00,VALID,0,VALID,97.9606,VALID,0,VALID,18.9967,VALID,231,VALID,0,
1999-10-22, 03:15:00,VALID,0,VALID,97.9021,VALID,-0.0339617,VALID,19.0161,VALID,231,VALID,0,
1999-10-22, 03:16:00,VALID,0,VALID,97.897,VALID,-0.0509425,VALID,19.0262,VALID,231,VALID,0,
1999-10-22, 03:17:00,VALID,0,VALID,97.911,VALID,-0.0339617,VALID,19.0355,VALID,232,VALID,0,
1999-10-22, 03:18:00,VALID,0,VALID,98.0725,VALID,-0.0679233,VALID,19.0939,VALID,261,VALID,0,
1999-10-22, 03:19:00,VALID,0,VALID,98.0433,VALID,-0.0509425,VALID,19.1454,VALID,261,VALID,0,
1999-10-22, 03:20:00,VALID,0,VALID,97.9008,VALID,-0.0509425,VALID,19.1974,VALID,261,VALID,0,
1999-10-22, 03:21:00,VALID,0,VALID,97.6618,VALID,-0.0509425,VALID,19.2068,VALID,259,VALID,0,
1999-10-22, 03:22:00,VALID,0,VALID,97.2536,VALID,-0.0339617,VALID,19.1907,VALID,249,VALID,0,
1999-10-22, 03:23:00,VALID,0,VALID,97.101,VALID,-0.0339617,VALID,19.1944,VALID,249,VALID,0,
1999-10-22, 03:24:00,VALID,0,VALID,97.2371,VALID,0,VALID,19.2071,VALID,249,VALID,0,
1999-10-22, 03:25:00,VALID,0,VALID,97.3896,VALID,-0.0339617,VALID,19.2066,VALID,249,VALID,0,
1999-10-22, 03:26:00,VALID,0,VALID,97.5079,VALID,-0.0169808,VALID,19.233,VALID,249,VALID,0,
1999-10-22, 03:27:00,VALID,0,VALID,97.4253,VALID,0,VALID,19.2429,VALID,255,VALID,0,
1999-10-22, 03:28:00,VALID,0,VALID,97.2167,VALID,0,VALID,19.2394,VALID,263,VALID,0,
1999-10-22, 03:29:00,VALID,0,VALID,97.2358,VALID,-0.0339617,VALID,19.2494,VALID,263,VALID,0,
1999-10-22, 03:30:00,VALID,0,VALID,97.2803,VALID,-0.0169808,VALID,19.2526,VALID,263,VALID,0,
1999-10-22, 03:31:00,VALID,0,VALID,97.2332,VALID,-0.0509425,VALID,19.2357,VALID,263,VALID,0,
1999-10-22, 03:32:00,VALID,0,VALID,97.0807,VALID,-0.0339617,VALID,19.227,VALID,263,VALID,0,
1999-10-22, 03:33:00,VALID,0,VALID,96.7882,VALID,-0.0509425,VALID,19.1909,VALID,263,VALID,0,
1999-10-22, 03:34:00,VALID,0,VALID,96.6063,VALID,-0.0169808,VALID,19.1524,VALID,264,VALID,0,
1999-10-22, 03:35:00,VALID,0,VALID,97.2701,VALID,0,VALID,19.168,VALID,264,VALID,0,
1999-10-22, 03:36:00,VALID,0,VALID,97.897,VALID,-0.0169808,VALID,19.2205,VALID,264,VALID,0,
1999-10-22, 03:37:00,VALID,0,VALID,97.9441,VALID,0,VALID,19.2235,VALID,263,VALID,0,
1999-10-22, 03:38:00,VALID,0,VALID,97.7088,VALID,-0.0169808,VALID,19.1979,VALID,263,VALID,0,
1999-10-22, 03:39:00,VALID,0,VALID,97.5448,VALID,-0.0509425,VALID,19.168,VALID,263,VALID,0,
1999-10-22, 03:40:00,VALID,0,VALID,97.6605,VALID,-0.0509425,VALID,19.1912,VALID,263,VALID,0,
1999-10-22, 03:41:00,VALID,0,VALID,98.028,VALID,-0.0339617,VALID,19.2265,VALID,263,VALID,0,
1999-10-22, 03:42:00,VALID,0,VALID,98.1691,VALID,-0.0169808,VALID,19.2496,VALID,264,VALID,0,
1999-10-22, 03:43:00,VALID,0,VALID,98,VALID,-0.0849042,VALID,19.2302,VALID,263,VALID,0,
1999-10-22, 03:44:00,VALID,0,VALID,97.7114,VALID,-0.0509425,VALID,19.1939,VALID,264,VALID,0,
1999-10-22, 03:45:00,VALID,0,VALID,97.911,VALID,-0.0509425,VALID,19.2265,VALID,270,VALID,0,
1999-10-22, 03:46:00,VALID,0,VALID,97.8716,VALID,-0.0339617,VALID,19.2136,VALID,274,VALID,0,
1999-10-22, 03:47:00,VALID,0,VALID,97.8767,VALID,0,VALID,19.2106,VALID,276,VALID,0,
1999-10-22, 03:48:00,VALID,0,VALID,97.9771,VALID,-0.0339617,VALID,19.2136,VALID,276,VALID,0,
1999-10-22, 03:49:00,VALID,0,VALID,98.0585,VALID,-0.0169808,VALID,19.2133,VALID,276,VALID,0,
1999-10-22, 03:50:00,VALID,0,VALID,98.1081,VALID,-0.0339617,VALID,19.2066,VALID,276,VALID,0,
1999-10-22, 03:51:00,VALID,0,VALID,98.1412,VALID,-0.0169808,VALID,19.2103,VALID,276,VALID,0,
1999-10-22, 03:52:00,VALID,0,VALID,98.1577,VALID,-0.0169808,VALID,19.2073,VALID,276,VALID,0,
1999-10-22, 03:53:00,VALID,0,VALID,98.1793,VALID,-0.0169808,VALID,19.1946,VALID,276,VALID,0,
1999-10-22, 03:54:01,VALID,0,VALID,98.2251,VALID,0,VALID,19.181,VALID,276,VALID,0,
1999-10-22, 03:55:00,VALID,0,VALID,98.2404,VALID,0,VALID,19.1618,VALID,276,VALID,0,
1999-10-22, 03:56:00,VALID,0,VALID,98.2442,VALID,0,VALID,19.1486,VALID,276,VALID,0,
1999-10-22, 03:57:00,VALID,0,VALID,98.2671,VALID,0,VALID,19.1325,VALID,276,VALID,0,
1999-10-22, 03:58:00,VALID,0,VALID,98.2887,VALID,0.0169808,VALID,19.1262,VALID,276,VALID,0,
1999-10-22, 03:59:00,VALID,0,VALID,98.3065,VALID,0,VALID,19.1131,VALID,276,VALID,0,
1999-10-22, 04:00:00,VALID,0,VALID,98.2925,VALID,0,VALID,19.084,VALID,276,VALID,0,
1999-10-22, 04:01:00,VALID,0,VALID,98.3052,VALID,-0.0339617,VALID,19.0678,VALID,276,VALID,0,
1999-10-22, 04:02:00,VALID,0,VALID,98.2785,VALID,0,VALID,19.0484,VALID,261,VALID,0,
1999-10-22, 04:03:00,VALID,0,VALID,98.1971,VALID,-0.0339617,VALID,19.0295,VALID,240,VALID,0,
1999-10-22, 04:04:01,VALID,0,VALID,98.1831,VALID,0,VALID,18.9932,VALID,239,VALID,0,
1999-10-22, 04:05:01,VALID,0,VALID,98.22,VALID,0,VALID,18.9773,VALID,238,VALID,0,
1999-10-22, 04:06:00,VALID,0,VALID,98.2365,VALID,0,VALID,18.9514,VALID,238,VALID,0,
1999-10-22, 04:07:00,VALID,0,VALID,98.2899,VALID,-0.0169808,VALID,18.9491,VALID,238,VALID,0,
1999-10-22, 04:08:00,VALID,0,VALID,98.3217,VALID,0,VALID,18.9255,VALID,243,VALID,0,
1999-10-22, 04:09:00,VALID,0,VALID,98.4031,VALID,-0.0169808,VALID,18.9295,VALID,244,VALID,0,
1999-10-22, 04:10:00,VALID,0,VALID,98.4209,VALID,0,VALID,18.8897,VALID,223,VALID,0,
1999-10-22, 04:11:00,VALID,0,VALID,98.3167,VALID,-0.0169808,VALID,18.8611,VALID,136,VALID,0,
1999-10-22, 04:12:00,VALID,0,VALID,98.3713,VALID,0,VALID,18.8574,VALID,124,VALID,0,
1999-10-22, 04:13:00,VALID,0,VALID,98.4108,VALID,0,VALID,18.8738,VALID,356,VALID,0,
1999-10-22, 04:14:00,VALID,0,VALID,98.3739,VALID,-0.0339617,VALID,18.8449,VALID,289,VALID,0,
1999-10-22, 04:15:01,VALID,0,VALID,98.398,VALID,-0.0169808,VALID,18.8484,VALID,257,VALID,0,
1999-10-22, 04:16:01,VALID,0,VALID,98.3586,VALID,0,VALID,18.8382,VALID,137,VALID,0,
1999-10-22, 04:17:00,VALID,0,VALID,98.248,VALID,0,VALID,18.8322,VALID,111,VALID,0,
1999-10-22, 04:18:00,VALID,0,VALID,98.1552,VALID,-0.0169808,VALID,18.8384,VALID,104,VALID,0,